TimeAKST,TemperatureF,Dew PointF,Humidity,Sea Level PressureIn,VisibilityMPH,Wind Direction,Wind SpeedMPH,Gust SpeedMPH,PrecipitationIn,Events,Conditions,WindDirDegrees,DateUTC
12:53 AM,35.1,35.1,100,30.32,10.0,Calm,Calm,-,N/A,,Clear,0,2013-01-20 09:53:00
1:53 AM,36.0,35.1,97,30.30,10.0,East,3.5,-,N/A,,Overcast,100,2013-01-20 10:53:00
3:00 AM,44.6,35.6,71,30.29,10.0,SE,6.9,-,N/A,,Overcast,140,2013-01-20 12:00:00
4:53 AM,45.0,35.1,68,30.28,10.0,ESE,10.4,-,N/A,,Overcast,120,2013-01-20 13:53:00
5:06 AM,44.6,35.6,71,30.28,10.0,SE,9.2,-,N/A,,Overcast,140,2013-01-20 14:06:00
5:53 AM,45.0,36.0,71,30.28,10.0,SE,8.1,-,N/A,,Overcast,130,2013-01-20 14:53:00
6:13 AM,44.6,35.6,71,30.28,10.0,SE,9.2,-,N/A,,Overcast,140,2013-01-20 15:13:00
6:44 AM,44.6,35.6,71,30.27,10.0,SE,10.4,-,N/A,,Overcast,140,2013-01-20 15:44:00
6:53 AM,45.0,36.0,71,30.28,10.0,SE,10.4,-,N/A,,Overcast,140,2013-01-20 15:53:00
7:12 AM,44.6,35.6,71,30.27,10.0,SE,9.2,-,N/A,,Overcast,140,2013-01-20 16:12:00
7:53 AM,45.0,36.0,71,30.29,10.0,SE,11.5,-,N/A,,Overcast,140,2013-01-20 16:53:00
8:53 AM,45.0,36.0,71,30.30,10.0,SE,11.5,-,N/A,,Overcast,130,2013-01-20 17:53:00
9:53 AM,45.0,36.0,71,30.31,10.0,SE,13.8,19.6,N/A,,Overcast,130,2013-01-20 18:53:00
10:11 AM,44.6,37.4,76,30.30,10.0,ESE,10.4,-,N/A,,Overcast,120,2013-01-20 19:11:00
10:21 AM,44.6,35.6,71,30.30,10.0,SE,13.8,-,N/A,,Overcast,130,2013-01-20 19:21:00
10:53 AM,45.0,36.0,71,30.30,10.0,ESE,11.5,-,N/A,,Overcast,120,2013-01-20 19:53:00
11:53 AM,45.0,37.0,74,30.30,10.0,SE,8.1,-,N/A,,Overcast,140,2013-01-20 20:53:00
12:53 PM,45.0,37.0,74,30.29,10.0,SE,6.9,17.3,N/A,,Overcast,140,2013-01-20 21:53:00
1:53 PM,45.0,36.0,71,30.27,10.0,ESE,9.2,-,N/A,,Overcast,120,2013-01-20 22:53:00
2:53 PM,45.0,36.0,71,30.25,10.0,SE,12.7,-,N/A,,Overcast,130,2013-01-20 23:53:00
3:53 PM,44.1,37.0,76,30.25,10.0,SE,11.5,-,N/A,,Overcast,140,2013-01-21 00:53:00
4:53 PM,44.1,37.9,79,30.25,10.0,SE,10.4,-,N/A,,Overcast,140,2013-01-21 01:53:00
5:35 PM,42.8,37.4,81,30.24,10.0,SE,11.5,-,N/A,,Overcast,130,2013-01-21 02:35:00
5:53 PM,43.0,39.0,86,30.25,6.0,SE,10.4,-,0.00,Rain,Light Rain,130,2013-01-21 02:53:00
6:53 PM,42.1,39.9,92,30.24,5.0,SE,10.4,-,0.01,,Overcast,130,2013-01-21 03:53:00
7:53 PM,42.1,39.9,92,30.23,5.0,ESE,10.4,19.6,0.01,Rain,Light Rain,110,2013-01-21 04:53:00
8:53 PM,42.1,39.9,92,30.25,9.0,ESE,12.7,-,0.00,,Overcast,120,2013-01-21 05:53:00
9:24 PM,42.8,39.2,87,30.24,3.0,ESE,10.4,-,0.01,Rain,Light Rain,120,2013-01-21 06:24:00
9:53 PM,42.1,39.9,92,30.24,4.0,ESE,11.5,-,0.02,,Overcast,120,2013-01-21 06:53:00
10:53 PM,42.1,39.9,92,30.24,4.0,ESE,10.4,18.4,0.01,,Overcast,120,2013-01-21 07:53:00
11:06 PM,42.8,39.2,87,30.24,8.0,ESE,10.4,-,N/A,,Overcast,120,2013-01-21 08:06:00
11:53 PM,42.1,39.9,92,30.24,10.0,ESE,10.4,20.7,N/A,,Overcast,120,2013-01-21 08:53:00